(188220) = 2002 TP86 = 2005 NO72

Discovered at Socorro on 2002-10-03 by LINEAR.

Orbit

Orbit type: Main Belt

Note: WebGL enabled browser required.

epoch2024-03-31.0
epoch JD2460400.5
perihelion date2021-10-22.25569
perihelion JD2459509.75569
argument of perihelion (°)123.27542
ascending node (°)168.96500
inclination (°)1.63127
eccentricity0.2313682
perihelion distance (AU)1.6889260
Tisserand w.r.t. Jupiter3.6
ΔV w.r.t. Earth (km/sec)8.0
semimajor axis (AU)2.1973149
mean anomaly (°)269.53704
mean daily motion (°/day)0.30259750
aphelion distance (AU)2.706
period (years)3.26
P-vector [x]0.37855865
P-vector [y]-0.85838678
P-vector [z]-0.34621595
Q-vector [x]0.92556126
Q-vector [y]0.35327387
Q-vector [z]0.13613933
absolute magnitude17.75
phase slope0.15
uncertainty0
referenceMPEC 2024-F14
observations used427
oppositions17
arc length (days)8443
first opposition used2001
last opposition used2024
residual rms (arc-secs)0.74
perturbers coarse indicatorM-v
perturbers precise indicator003Ek
first observation date used2001-02-03.0
last observation date used2024-03-17.0
computer nameMPCLINUX
JD of orbit computation2456760.768473
perihelion JD uncertainty (days)6.0705E-05
argument of perihelion uncertainty (°)1.3862E-04
ascending node uncertainty (°)1.3805E-04
inclination uncertainty (°)4.5774E-06
eccentricity uncertainty 3.6463E-08
perihelion distance uncertainty (AU)8.5387E-08
Minimum Orbit Intersection Distances (in AU)
for orbit epoch: 2460400.5, reference: E2024-GH2
Mercury1.24082
Venus0.96317
Earth0.67325
Mars0.26785
Jupiter2.47793
Saturn6.35872
Uranus15.8804
Neptune27.3427

Observations

438 total observations over interval: 2001 02 03.38610 – 2024 03 17.456045
These data are available for download (format description).

Date (UT) J2000 RA J2000 Dec Magn Location Ref
2001 02 03.38610 10 18 42.17 +09 25 15.5 21.5 V 691 – Steward Observatory, Kitt Peak-Spacewatch MPS 137945
2001 02 03.40736 10 18 40.97 +09 25 23.0 21.8 V 691 – Steward Observatory, Kitt Peak-Spacewatch MPS 137945
2001 02 03.42901 10 18 39.75 +09 25 30.4 21.6 V 691 – Steward Observatory, Kitt Peak-Spacewatch MPS 137945
2002 09 28.19949 01 00 10.84 +05 08 51.1 19.7   644 – Palomar Mountain/NEAT MPS 83018
2002 09 28.27268 01 00 06.36 +05 08 19.0 19.6   644 – Palomar Mountain/NEAT MPS 83018
2002 09 28.33598 01 00 02.43 +05 07 51.1 19.4   644 – Palomar Mountain/NEAT MPS 83018
2002 10 03.24786 00 55 08.40 +04 31 18.4 19.4   704 – Lincoln Laboratory ETS, New Mexico MPS 63998
2002 10 03.25518 00 55 07.91 +04 31 15.2 19.3   704 – Lincoln Laboratory ETS, New Mexico MPS 63998
2002 10 03.26324 00 55 07.37 +04 31 11.3 19.4   704 – Lincoln Laboratory ETS, New Mexico MPS 63998
2002 10 03.27058 00 55 06.96 +04 31 08.1 19.9   704 – Lincoln Laboratory ETS, New Mexico MPS 63998
2002 10 03.27872 00 55 06.45 +04 31 05.3 19.9   704 – Lincoln Laboratory ETS, New Mexico MPS 63998
2002 10 03.28611 00 55 05.95 +04 31 01.8 19.5   704 – Lincoln Laboratory ETS, New Mexico MPS 63998
2002 10 03.29427 00 55 05.42 +04 30 58.4 19.7   704 – Lincoln Laboratory ETS, New Mexico MPS 63998
2002 10 03.30160 00 55 04.99 +04 30 54.8 19.3   704 – Lincoln Laboratory ETS, New Mexico MPS 63998
2002 10 03.30967 00 55 04.37 +04 30 50.4 20.0   704 – Lincoln Laboratory ETS, New Mexico MPS 63998
2002 10 03.31702 00 55 03.96 +04 30 47.3 19.8   704 – Lincoln Laboratory ETS, New Mexico MPS 63998
2002 10 04.24922 00 54 07.87 +04 23 50.7 19.1   704 – Lincoln Laboratory ETS, New Mexico MPS 63998
2002 10 04.26486 00 54 06.92 +04 23 44.6 19.7   704 – Lincoln Laboratory ETS, New Mexico MPS 63998
2002 10 04.28061 00 54 05.90 +04 23 37.5 19.3   704 – Lincoln Laboratory ETS, New Mexico MPS 63998
2002 10 04.29633 00 54 04.92 +04 23 29.7 19.9   704 – Lincoln Laboratory ETS, New Mexico MPS 63998
2002 10 04.31207 00 54 03.93 +04 23 22.3 19.8   704 – Lincoln Laboratory ETS, New Mexico MPS 63998
2002 10 06.38464 00 51 58.86 +04 08 04.4 19.8 V 291 – LPL/Spacewatch II MPS 63998
2002 10 06.40774 00 51 57.41 +04 07 54.0 19.6 V 291 – LPL/Spacewatch II MPS 63998
2002 10 06.43245 00 51 55.85 +04 07 43.2 19.5 V 291 – LPL/Spacewatch II MPS 63998
2002 10 07.16678 00 51 12.50 +04 02 22.1 19.1 R 699 – Lowell Observatory-LONEOS MPS 63998
2002 10 07.18855 00 51 11.24 +04 02 10.4   699 – Lowell Observatory-LONEOS MPS 63998
2002 10 07.21027 00 51 09.89 +04 02 02.8   699 – Lowell Observatory-LONEOS MPS 63998
2002 10 07.23190 00 51 08.69 +04 01 52.4   699 – Lowell Observatory-LONEOS MPS 63998
2002 10 09.26000 00 49 08.29 +03 47 12.2 19.8   704 – Lincoln Laboratory ETS, New Mexico MPS 63998
2002 10 09.27566 00 49 07.32 +03 47 05.0 19.8   704 – Lincoln Laboratory ETS, New Mexico MPS 63998
2002 10 09.29114 00 49 06.32 +03 46 58.7 19.8   704 – Lincoln Laboratory ETS, New Mexico MPS 63998
2002 10 09.30673 00 49 05.31 +03 46 51.7 19.9   704 – Lincoln Laboratory ETS, New Mexico MPS 63998
2002 10 11.24650 00 47 12.92 +03 33 11.9 19.3   704 – Lincoln Laboratory ETS, New Mexico MPS 68046
2002 10 11.26234 00 47 11.90 +03 33 04.0 20.1   704 – Lincoln Laboratory ETS, New Mexico MPS 68046
2002 10 11.27807 00 47 10.96 +03 32 57.9 20.4   704 – Lincoln Laboratory ETS, New Mexico MPS 68046
2002 10 11.29385 00 47 09.99 +03 32 51.6 20.1   704 – Lincoln Laboratory ETS, New Mexico MPS 68046
2002 10 11.30967 00 47 09.07 +03 32 45.0 20.2   704 – Lincoln Laboratory ETS, New Mexico MPS 68046
2004 01 19.26143 08 34 47.63 +16 48 55.0 21.6 V 691 – Steward Observatory, Kitt Peak-Spacewatch MPS 137945
2004 01 19.29002 08 34 45.72 +16 49 02.5 21.4 V 691 – Steward Observatory, Kitt Peak-Spacewatch MPS 137945
2004 01 19.31978 08 34 43.72 +16 49 09.9 21.9 V 691 – Steward Observatory, Kitt Peak-Spacewatch MPS 137945
2005 06 28.26999 20 17 05.85 -16 15 23.7 19.0 V 691 – Steward Observatory, Kitt Peak-Spacewatch MPS 137945
2005 06 28.28749 20 17 05.46 -16 15 24.9 19.0 V 691 – Steward Observatory, Kitt Peak-Spacewatch MPS 137945
2005 06 28.30839 20 17 04.97 -16 15 26.0 18.9 V 691 – Steward Observatory, Kitt Peak-Spacewatch MPS 137945
2005 07 07.26637 20 12 57.75 -16 30 23.2 18.4   704 – Lincoln Laboratory ETS, New Mexico MPS 138066
2005 07 07.27654 20 12 57.40 -16 30 26.1 19.0   704 – Lincoln Laboratory ETS, New Mexico MPS 138066
2005 07 07.28675 20 12 56.92 -16 30 27.4 18.4   704 – Lincoln Laboratory ETS, New Mexico MPS 138066
2005 07 07.29694 20 12 56.56 -16 30 28.8 18.9   704 – Lincoln Laboratory ETS, New Mexico MPS 138066
2005 07 07.30733 20 12 56.08 -16 30 29.6 18.9   704 – Lincoln Laboratory ETS, New Mexico MPS 138066
2005 07 10.26612 20 11 05.39 -16 38 04.6 18.6 V 691 – Steward Observatory, Kitt Peak-Spacewatch MPS 138066
2005 07 10.28361 20 11 04.62 -16 38 07.6 18.6 V 691 – Steward Observatory, Kitt Peak-Spacewatch MPS 138066
2005 07 10.30099 20 11 03.87 -16 38 10.6 18.5 V 691 – Steward Observatory, Kitt Peak-Spacewatch MPS 138066
2005 07 16.51848 20 06 39.88 -16 57 15.0 18.0 V E12 – Siding Spring Survey MPS 138304
2005 07 16.52303 20 06 39.67 -16 57 15.9 17.9 V E12 – Siding Spring Survey MPS 138304
2005 07 16.52750 20 06 39.49 -16 57 17.0 17.9 V E12 – Siding Spring Survey MPS 138304
2005 07 16.53204 20 06 39.24 -16 57 17.9 17.8 V E12 – Siding Spring Survey MPS 138304
2005 07 28.46109 19 57 38.03 -17 41 54.5 20.4   608 – Haleakala-AMOS MPS 138624
2005 07 28.47168 19 57 37.44 -17 41 57.2 20.1   608 – Haleakala-AMOS MPS 138624
2005 07 28.48235 19 57 37.00 -17 41 59.3 20.3   608 – Haleakala-AMOS MPS 138624
2005 08 01.54472 19 54 49.75 -17 57 32.5 18.0 V E12 – Siding Spring Survey MPS 138870
2005 08 01.55082 19 54 49.50 -17 57 33.8 17.8 V E12 – Siding Spring Survey MPS 138870
2005 08 01.55687 19 54 49.10 -17 57 36.0 17.4 V E12 – Siding Spring Survey MPS 138870
2005 08 06.16113 19 52 04.60 -18 15 05.0 18.6   704 – Lincoln Laboratory ETS, New Mexico MPS 139287
2005 08 06.17318 19 52 04.16 -18 15 07.5 19.0   704 – Lincoln Laboratory ETS, New Mexico MPS 139287
2005 08 06.18520 19 52 03.74 -18 15 08.3 18.9   704 – Lincoln Laboratory ETS, New Mexico MPS 139287
2005 08 06.19723 19 52 03.28 -18 15 13.3 19.0   704 – Lincoln Laboratory ETS, New Mexico MPS 139287
2005 08 06.20924 19 52 02.92 -18 15 14.1 18.5   704 – Lincoln Laboratory ETS, New Mexico MPS 139287
2005 09 08.44597 19 53 54.56 -19 26 22.4 19.0 V E12 – Siding Spring Survey MPS 141053
2005 09 08.45491 19 53 54.88 -19 26 22.5 19.6 V E12 – Siding Spring Survey MPS 141053
2005 09 08.46375 19 53 55.28 -19 26 22.9 19.1 V E12 – Siding Spring Survey MPS 141053
2005 09 08.47238 19 53 55.60 -19 26 23.0 18.6 V E12 – Siding Spring Survey MPS 141053
2005 09 29.11370 20 14 37.96 -19 03 29.1 19.5 V G96 – Mt. Lemmon Survey MPS 142619
2005 09 29.12112 20 14 38.58 -19 03 28.2 19.8 V G96 – Mt. Lemmon Survey MPS 142619
2005 09 29.12853 20 14 39.12 -19 03 27.0 19.8 V G96 – Mt. Lemmon Survey MPS 142619
2005 09 29.13602 20 14 39.84 -19 03 27.3 17.9 V G96 – Mt. Lemmon Survey MPS 142619
2006 12 16.34116 07 12 01.36 +20 02 10.8 20.9 V G96 – Mt. Lemmon Survey MPS 192024
2006 12 16.34308 07 12 01.18 +20 02 10.7 21.5 V G96 – Mt. Lemmon Survey MPS 192024
2006 12 16.34503 07 12 01.11 +20 02 11.0 21.7 V G96 – Mt. Lemmon Survey MPS 192024
2006 12 16.34698 07 12 00.97 +20 02 10.8 22.0 V G96 – Mt. Lemmon Survey MPS 192024
2008 03 28.38355 14 48 37.72 -14 21 08.8 21.1 V G96 – Mt. Lemmon Survey MPS 243989
2008 03 28.39092 14 48 37.51 -14 21 07.5 19.9 V G96 – Mt. Lemmon Survey MPS 243989
2008 03 28.39820 14 48 37.44 -14 21 05.9 20.3 V G96 – Mt. Lemmon Survey MPS 243989
2008 03 28.40554 14 48 37.33 -14 21 04.9 20.1 V G96 – Mt. Lemmon Survey MPS 243989
2008 04 01.34795 14 47 28.00 -14 09 22.5 21.1 V 691 – Steward Observatory, Kitt Peak-Spacewatch MPS 244611
2008 04 01.36558 14 47 27.57 -14 09 18.7 20.4 V 691 – Steward Observatory, Kitt Peak-Spacewatch MPS 244611
2008 04 01.38319 14 47 27.11 -14 09 15.5 20.3 V 691 – Steward Observatory, Kitt Peak-Spacewatch MPS 244611
2008 04 05.33318 14 45 45.25 -13 55 00.9 20.9 V 691 – Steward Observatory, Kitt Peak-Spacewatch MPS 245694
